Woomera, Australia

8:08 AM ACST on August 22, 2017 (GMT +0930)
Woomera

Weather History for YPWR - December, 2013

Change the Weather History Date:

Thursday, December 19, 2013

  Actual Average Record
Temperature  
Mean Temperature 96 °F -  
Max Temperature 111 °F 92 °F - ()
Min Temperature 81 °F 66 °F - ()
Cooling Degree Days 31    
Growing Degree Days 46 (Base 50)    
Moisture  
Dew Point 40 °F    
Average Humidity 14    
Maximum Humidity 42    
Minimum Humidity 4    
Precipitation  
Precipitation 0.01 in 0.02 in - ()
Sea Level Pressure  
Sea Level Pressure 29.84 in    
Wind  
Wind Speed 12 mph ()    
Max Wind Speed 29 mph    
Max Gust Speed 47 mph    
Visibility 6.2 miles    
Events      
T = Trace of Precipitation, MM = Missing Value Source: Averaged Metar Reports

Daily Weather History Graph

Daily Weather History Graph

Search for Another Location

Airport or City:

Trip Planner

Search our weather history database for the weather conditions in past years. The results will help you decide how hot, cold, wet, or windy it might be!

Date:

Astronomy

Dec. 19, 2013 Rise Set
Actual Time 6:14 AM ACDT 8:24 PM ACDT
Civil Twilight 5:46 AM ACDT 8:52 PM ACDT
Nautical Twilight 5:12 AM ACDT 9:26 PM ACDT
Astronomical Twilight 4:35 AM ACDT 10:03 PM ACDT
Moon 9:37 PM ACDT (12/19) 7:42 AM ACDT (12/19)
Length of Visible Light 15h 06m
Length of Day
14h 10m
Full, 97% of the Moon is Illuminated
Dec 19
Full
Dec 26
Last Quarter
Jan 1
New
Jan 8
First Quarter
Jan 16
Full

Hourly Weather History & Observations

Time (ACDT) Temp. Heat Index Dew Point Humidity Pressure Visibility Wind Dir Wind Speed Gust Speed Precip Events Conditions
12:00 AM 89 °F - 31 °F 6% 29.88 in - ESE 6.9 mph - -  
12:00 AM 89.6 °F - 30.2 °F 12% 29.89 in 6.2 mi ESE 6.9 mph - N/A   Unknown
12:30 AM 87.8 °F - 30.2 °F 13% 29.89 in 6.2 mi ESE 6.9 mph - N/A   Unknown
1:00 AM 87.8 °F - 30.2 °F 13% 29.89 in 6.2 mi ESE 6.9 mph - N/A   Unknown
1:30 AM 87 °F - 31 °F 6% 29.86 in - ESE 8.1 mph - -  
1:30 AM 86.0 °F - 30.2 °F 13% 29.89 in 6.2 mi ESE 8.1 mph - N/A   Unknown
2:00 AM 86.0 °F - 28.4 °F 12% 29.86 in 6.2 mi ESE 8.1 mph - N/A   Unknown
2:30 AM 86.0 °F - 30.2 °F 13% 29.86 in 6.2 mi ESE 6.9 mph - N/A   Unknown
3:00 AM 85 °F - 30 °F 7% 29.85 in - ESE 8.1 mph - -  
3:00 AM 84.2 °F - 30.2 °F 14% 29.86 in 6.2 mi ESE 8.1 mph - N/A   Unknown
3:30 AM 84.2 °F - 30.2 °F 14% 29.86 in 6.2 mi ESE 8.1 mph - N/A   Unknown
4:00 AM 84.2 °F - 30.2 °F 14% 29.86 in 6.2 mi East 8.1 mph - N/A   Unknown
4:30 AM 83 °F - 31 °F 7% 29.84 in - East 8.1 mph - -  
4:30 AM 82.4 °F - 30.2 °F 15% 29.86 in 6.2 mi East 8.1 mph - N/A   Unknown
5:00 AM 82.4 °F - 33.8 °F 17% 29.86 in 6.2 mi East 8.1 mph - N/A   Unknown
5:30 AM 82.4 °F - 30.2 °F 15% 29.86 in 6.2 mi East 9.2 mph - N/A   Unknown
6:00 AM 84 °F - 30 °F 7% 29.85 in - East 9.2 mph - -  
6:00 AM 84.2 °F - 30.2 °F 14% 29.86 in 6.2 mi East 9.2 mph - N/A   Unknown
6:30 AM 82.4 °F - 33.8 °F 17% 29.89 in 6.2 mi East 8.1 mph - N/A   Unknown
7:00 AM 86.0 °F - 32.0 °F 14% 29.89 in 6.2 mi East 9.2 mph - N/A   Unknown
7:30 AM 88 °F - 33 °F 7% 29.88 in - ENE 11.5 mph - -  
7:30 AM 87.8 °F - 32.0 °F 14% 29.89 in 6.2 mi ENE 11.5 mph - N/A   Unknown
8:00 AM 91.4 °F - 35.6 °F 14% 29.89 in 6.2 mi NE 12.7 mph - N/A   Unknown
8:30 AM 95.0 °F - 37.4 °F 13% 29.89 in 6.2 mi NNE 20.7 mph - N/A   Unknown
9:00 AM 96 °F - 38 °F 7% 29.89 in - NNE 21.9 mph - -  
9:00 AM 96.8 °F - 37.4 °F 13% 29.89 in 6.2 mi NNE 21.9 mph - N/A   Unknown
9:30 AM 98.6 °F - 41.0 °F 14% 29.89 in 6.2 mi NNE 20.7 mph - N/A   Unknown
10:00 AM 100.4 °F - 42.8 °F 14% 29.89 in 6.2 mi North 20.7 mph - N/A   Unknown
10:30 AM 102 °F - 43 °F 7% 29.88 in - North 19.6 mph - -  
10:30 AM 102.2 °F - 42.8 °F 13% 29.89 in 6.2 mi North 19.6 mph - N/A   Unknown
11:00 AM 104.0 °F - 42.8 °F 12% 29.89 in 6.2 mi North 19.6 mph - N/A   Unknown
11:30 AM 105.8 °F - 41.0 °F 11% 29.89 in 6.2 mi North 19.6 mph - N/A   Unknown
12:00 PM 106 °F - 42 °F 6% 29.86 in - North 18.4 mph - -  
12:00 PM 105.8 °F - 41.0 °F 11% 29.89 in 6.2 mi North 18.4 mph - N/A   Unknown
12:30 PM 105.8 °F - 37.4 °F 10% 29.86 in 6.2 mi NNE 19.6 mph - N/A   Scattered Clouds
1:00 PM 107.6 °F - 37.4 °F 9% 29.86 in 6.2 mi NNE 13.8 mph - N/A   Unknown
1:30 PM 108 °F - 36 °F 4% 29.83 in - North 13.8 mph - -  
1:30 PM 107.6 °F - 35.6 °F 8% 29.86 in 6.2 mi North 13.8 mph 25.3 mph N/A   Unknown
2:00 PM 111.2 °F - 37.4 °F 8% 29.83 in 6.2 mi NNE 17.3 mph - N/A   Unknown
2:30 PM 107.6 °F - 37.4 °F 9% 29.83 in 6.2 mi North 12.7 mph 24.2 mph N/A   Unknown
3:00 PM 108 °F - 38 °F 4% 29.81 in - North 18.4 mph - -  
3:00 PM 107.6 °F - 37.4 °F 9% 29.83 in 6.2 mi North 18.4 mph - N/A   Unknown
3:30 PM 105.8 °F - 39.2 °F 10% 29.80 in 6.2 mi North 11.5 mph - N/A   Unknown
4:00 PM 107.6 °F - 39.2 °F 10% 29.80 in 6.2 mi NNE 13.8 mph - N/A   Unknown
4:25 PM 104.0 °F - 39.2 °F 11% 29.80 in 6.2 mi North 26.5 mph 40.3 mph N/A   Unknown
4:30 PM 103 °F - 43 °F 7% 29.78 in - North 28.8 mph - -  
4:30 PM 104.0 °F - 42.8 °F 12% 29.80 in 6.2 mi North 28.8 mph 40.3 mph N/A   Unknown
4:40 PM 98.6 °F - 48.2 °F 18% 29.80 in 5.6 mi NE 21.9 mph - N/A   Scattered Clouds
4:41 PM 100.4 °F - 50.0 °F 18% 29.80 in 6.2 mi NE 19.6 mph 31.1 mph N/A   Scattered Clouds
4:49 PM 98.6 °F 97.6 °F 57.2 °F 25% 29.77 in 6.2 mi East 18.4 mph 47.2 mph N/A   Scattered Clouds
5:00 PM 100.4 °F - 50.0 °F 18% 29.77 in 6.2 mi East 24.2 mph - N/A   Scattered Clouds
5:30 PM 105.8 °F - 42.8 °F 12% 29.77 in 6.2 mi East 10.4 mph - N/A   Unknown
6:00 PM 103 °F - 43 °F 7% 29.76 in - East 9.2 mph - -  
6:00 PM 104.0 °F - 42.8 °F 12% 29.77 in 6.2 mi East 9.2 mph - N/A   Scattered Clouds
6:30 PM 96.8 °F - 50.0 °F 20% 29.77 in 6.2 mi East 21.9 mph - N/A   Unknown
7:30 PM 96 °F - 48 °F 11% 29.77 in - ENE 24.2 mph - -  
7:30 PM 96.8 °F - 48.2 °F 19% 29.77 in 6.2 mi ENE 24.2 mph - N/A   Unknown
8:00 PM 93.2 °F - 50.0 °F 23% 29.77 in 6.2 mi East 20.7 mph - N/A   Unknown
8:30 PM 93.2 °F - 50.0 °F 23% 29.80 in 6.2 mi ENE 17.3 mph - N/A   Unknown
9:00 PM 93 °F - 51 °F 15% 29.81 in - East 13.8 mph - -  
9:00 PM 93.2 °F - 50.0 °F 23% 29.83 in 6.2 mi East 13.8 mph - N/A   Scattered Clouds
9:30 PM 89.6 °F 87.3 °F 53.6 °F 29% 29.83 in 6.2 mi East 12.7 mph - N/A   Unknown
10:00 PM 84.2 °F 83.8 °F 59.0 °F 42% 29.83 in 6.2 mi East 17.3 mph - N/A   Scattered Clouds
10:26 PM 86.0 °F 84.5 °F 55.4 °F 35% 29.80 in 6.2 mi ENE 21.9 mph 35.7 mph N/A   Unknown
10:30 PM 88 °F - 53 °F 20% 29.80 in - ENE 24.2 mph - -  
10:30 PM 87.8 °F 85.7 °F 53.6 °F 31% 29.80 in 6.2 mi ENE 24.2 mph 35.7 mph N/A   Unknown
11:00 PM 86.0 °F 84.2 °F 53.6 °F 33% 29.80 in 6.2 mi East 19.6 mph - N/A   Unknown
11:30 PM 86.0 °F 84.5 °F 55.4 °F 35% 29.83 in 6.2 mi ENE 13.8 mph - N/A   Unknown